FW1310 Weather Reports


time (UTC)temp
F
wind
direction
speed
knots
gust
knots
rain 1hr
in
rain 24hr
in
rain mn
in
humidity
%
barometer
mb
20260901092004 78 155 1.7 5.2 0.00 0.00 0.00 84 999.9
20260901091504 78 254 2.6 4.3 0.00 0.00 0.00 84 1000.0
20260901091003 78 173 1.7 2.6 0.00 0.00 0.00 84 1000.1
20260901090503 78 201 1.7 4.3 0.00 0.00 0.00 83 999.9
20260901090004 79 227 1.7 4.3 0.00 0.00 0.00 83 999.9
20260901085504 79 264 2.6 4.3 0.00 0.00 0.00 83 999.9
20260901084503 79 144 0.9 2.6 0.00 0.00 0.00 83 999.7
20260901084004 79 198 1.7 4.3 0.00 0.00 0.00 82 999.8
20260901083504 79 182 2.6 4.3 0.00 0.00 0.00 82 999.7
20260901083003 79 160 1.7 2.6 0.00 0.00 0.00 82 999.7
20260901082503 80 177 1.7 2.6 0.00 0.00 0.00 82 999.6
20260901082004 80 147 1.7 2.6 0.00 0.00 0.00 81 999.7
20260901081503 80 163 1.7 4.3 0.00 0.00 0.00 81 999.7
20260901081003 80 165 2.6 4.3 0.00 0.00 0.00 81 999.9
20260901080503 80 184 1.7 4.3 0.00 0.00 0.00 80 999.8
20260901080004 80 168 1.7 4.3 0.00 0.00 0.00 80 999.7
20260901075004 80 179 2.6 6.1 0.00 0.00 0.00 79 999.9
20260901074503 80 188 4.3 5.2 0.00 0.00 0.00 79 1000.0
20260901071504 81 175 3.5 5.2 0.00 0.00 0.00 76 1000.0
20260901071003 81 183 1.7 5.2 0.00 0.00 0.00 76 999.8
20260901070504 81 157 1.7 4.3 0.00 0.00 0.00 76 999.8
20260901070003 82 177 2.6 5.2 0.00 0.00 0.00 75 999.9
20260901065504 82 205 2.6 5.2 0.00 0.00 0.00 75 999.9
20260901065004 82 196 2.6 4.3 0.00 0.00 0.00 75 1000.0
20260901064503 82 210 4.3 7.0 0.00 0.00 0.00 74 999.9
20260901064004 82 197 1.7 5.2 0.00 0.00 0.00 74 999.9
20260901063004 82 149 4.3 7.0 0.00 0.00 0.00 74 999.7
20260901062503 82 163 4.3 7.0 0.00 0.00 0.00 74 999.6
20260901062003 82 183 2.6 7.0 0.00 0.00 0.00 74 999.6
20260901061504 82 169 2.6 4.3 0.00 0.00 0.00 74 999.4
20260901061003 82 213 2.6 5.2 0.00 0.00 0.00 74 999.5
20260901060004 83 152 1.7 2.6 0.00 0.00 0.00 72 999.6
20260901055504 83 167 1.7 4.3 0.00 0.00 0.00 71 999.4
20260901055003 83 176 2.6 5.2 0.00 0.00 0.00 71 999.5
20260901054504 83 172 2.6 2.6 0.00 0.00 0.00 70 999.6
20260901054004 83 168 2.6 2.6 0.00 0.00 0.00 69 999.4
20260901053504 83 164 1.7 5.2 0.00 0.00 0.00 69 999.4
20260901053004 83 173 3.5 7.0 0.00 0.00 0.00 68 999.4
20260901052503 83 169 4.3 7.8 0.00 0.00 0.00 67 999.6
20260901052004 84 173 2.6 6.1 0.00 0.00 0.00 67 999.3
20260901051504 84 172 4.3 6.1 0.00 0.00 0.00 67 999.3
20260901051005 84 195 2.6 4.3 0.00 0.00 0.00 67 999.3
20260901050003 84 171 2.6 6.1 0.00 0.00 0.00 66 999.3
20260901045504 84 183 2.6 7.0 0.00 0.00 0.00 65 999.3
20260901045004 85 168 4.3 7.8 0.00 0.00 0.00 65 999.3
20260901044506 85 203 4.3 7.0 0.00 0.00 0.00 65 999.2
20260901044003 85 168 4.3 7.0 0.00 0.00 0.00 64 999.2
20260901043503 85 215 4.3 6.1 0.00 0.00 0.00 64 999.1
20260901043004 85 209 4.3 7.8 0.00 0.00 0.00 64 999.1
20260901042504 85 149 6.1 8.7 0.00 0.00 0.00 64 998.9
20260901042004 85 157 5.2 8.7 0.00 0.00 0.00 63 999.2
20260901041503 86 154 4.3 7.0 0.00 0.00 0.00 63 999.1
20260901041003 86 180 4.3 7.0 0.00 0.00 0.00 62 999.0
20260901040004 86 188 1.7 6.1 0.00 0.00 0.00 62 999.1
20260901035504 86 191 1.7 5.2 0.00 0.00 0.00 61 999.1
20260901035004 86 159 2.6 5.2 0.00 0.00 0.00 60 999.2
20260901034503 87 181 2.6 6.1 0.00 0.00 0.00 59 999.1
20260901034003 87 178 2.6 7.8 0.00 0.00 0.00 58 999.0
20260901033504 87 148 3.5 7.0 0.00 0.00 0.00 58 998.8
20260901033004 87 172 5.2 6.1 0.00 0.00 0.00 56 998.9
20260901032503 86 157 2.6 5.2 0.00 0.00 0.00 55 998.7
20260901032003 86 144 1.7 4.3 0.00 0.00 0.00 53 998.8
20260901030504 86 131 1.7 1.7 0.00 0.00 0.00 51 998.6
20260901030004 87 146 0.9 1.7 0.00 0.00 0.00 51 998.5
20260901025003 87 149 0.9 4.3 0.00 0.00 0.00 50 998.4
20260901024004 87 134 0.9 2.6 0.00 0.00 0.00 50 998.4
20260901023504 87 126 0.9 2.6 0.00 0.00 0.00 50 998.3
20260901023004 87 150 0.9 1.7 0.00 0.00 0.00 51 998.2
20260901022504 87 138 0.9 1.7 0.00 0.00 0.00 51 998.1
20260901022003 87 148 0.9 1.7 0.00 0.00 0.00 51 998.1
20260901021503 88 146 0.0 0.9 0.00 0.00 0.00 50 998.1
20260901021004 88 134 0.9 0.9 0.00 0.00 0.00 49 997.9
20260901020504 88 128 0.9 1.7 0.00 0.00 0.00 49 998.1
20260901020004 89 146 0.9 1.7 0.00 0.00 0.00 49 997.9
20260901015504 89 144 1.7 1.7 0.00 0.00 0.00 48 997.8
20260901015004 89 113 0.9 1.7 0.00 0.00 0.00 48 997.6
20260901014503 89 127 0.9 1.7 0.00 0.00 0.00 48 997.8
20260901014004 89 131 1.7 1.7 0.00 0.00 0.00 47 997.8
20260901013504 90 130 0.9 2.6 0.00 0.00 0.00 47 997.7
20260901013003 90 148 1.7 2.6 0.00 0.00 0.00 46 997.7
20260901012503 90 139 0.9 2.6 0.00 0.00 0.00 46 997.6
20260901012004 91 104 0.9 2.6 0.00 0.00 0.00 45 997.6
20260901011504 91 177 1.7 2.6 0.00 0.00 0.00 45 997.6
20260901011004 91 143 1.7 1.7 0.00 0.00 0.00 45 997.3
20260901010504 91 161 0.9 2.6 0.00 0.00 0.00 44 997.5
20260901010004 92 100 1.7 2.6 0.00 0.00 0.00 44 997.3
20260901005503 92 124 1.7 2.6 0.00 0.00 0.00 43 997.4
20260901005003 92 49 1.7 2.6 0.00 0.00 0.00 43 997.3
20260901004504 93 130 0.9 2.6 0.00 0.00 0.00 43 997.5
20260901004004 93 160 1.7 4.3 0.00 0.00 0.00 43 997.3
20260901003503 93 183 0.9 5.2 0.00 0.00 0.00 43 997.4
20260901003003 93 157 1.7 5.2 0.00 0.00 0.00 42 997.4
20260901002503 93 170 1.7 2.6 0.00 0.00 0.00 43 997.5
20260901002004 94 92 2.6 6.1 0.00 0.00 0.00 43 997.3
20260901001504 94 164 3.5 7.0 0.00 0.00 0.00 42 997.4
20260901001003 94 149 1.7 5.2 0.00 0.00 0.00 42 997.3
20260901000503 94 66 1.7 6.1 0.00 0.00 0.00 41 996.9
20260831235504 95 102 1.7 5.2 0.00 0.00 0.00 41 997.2
20260831235004 95 170 2.6 4.3 0.00 0.00 0.00 40 997.3
20260831233503 96 121 1.7 2.6 0.00 0.00 0.00 39 997.2
20260831233003 97 88 0.9 1.7 0.00 0.00 0.00 38 997.4
20260831232503 97 132 1.7 5.2 0.00 0.00 0.00 39 997.5
20260831232003 97 161 2.6 5.2 0.00 0.00 0.00 38 997.2
20260831231504 96 130 1.7 4.3 0.00 0.00 0.00 38 997.3
20260831230503 96 172 2.6 7.0 0.00 0.00 0.00 40 997.4
20260831230003 97 112 2.6 6.1 0.00 0.00 0.00 39 997.2
20260831225503 98 179 4.3 7.0 0.00 0.00 0.00 37 997.5
20260831225003 99 126 0.9 2.6 0.00 0.00 0.00 37 997.4
20260831224503 99 80 0.9 2.6 0.00 0.00 0.00 36 997.4
20260831224003 98 122 0.9 7.0 0.00 0.00 0.00 37 997.4
20260831223003 98 156 2.6 4.3 0.00 0.00 0.00 37 997.3
20260831222503 99 50 1.7 4.3 0.00 0.00 0.00 37 997.5
20260831222004 98 116 1.7 5.2 0.00 0.00 0.00 39 997.6
20260831221504 98 218 3.5 5.2 0.00 0.00 0.00 40 997.7
20260831221004 99 189 1.7 1.7 0.00 0.00 0.00 39 997.5
20260831220503 99 189 1.7 1.7 0.00 0.00 0.00 39 997.6
20260831220004 99 187 2.6 6.1 0.00 0.00 0.00 39 997.7
20260831215504 99 209 2.6 6.1 0.00 0.00 0.00 40 997.7
20260831215004 98 86 0.0 2.6 0.00 0.00 0.00 40 997.7
20260831214504 97 162 1.7 5.2 0.00 0.00 0.00 41 998.1
20260831213503 95 166 3.5 6.1 0.00 0.00 0.00 43 997.8
20260831213003 98 209 5.2 5.2 0.00 0.00 0.00 42 998.1
20260831212503 98 209 4.3 5.2 0.00 0.00 0.00 42 998.1
20260831212003 98 209 4.3 6.1 0.00 0.00 0.00 42 998.3
20260831211504 97 150 1.7 6.1 0.00 0.00 0.00 44 998.3
20260831211004 98 162 4.3 6.1 0.00 0.00 0.00 43 998.3
20260831210504 99 85 2.6 5.2 0.00 0.00 0.00 42 998.2
20260831210004 98 83 2.6 5.2 0.00 0.00 0.00 40 998.4
20260831205504 98 116 1.7 4.3 0.00 0.00 0.00 42 998.4
20260831204504 97 112 0.9 0.9 0.00 0.00 0.00 43 998.6
20260831203504 96 262 2.6 6.1 0.00 0.00 0.00 45 998.9
20260831203004 96 262 2.6 6.1 0.00 0.00 0.00 45 999.0
20260831202504 96 262 2.6 6.1 0.00 0.00 0.00 45 999.0
20260831202004 96 262 2.6 6.1 0.00 0.00 0.00 45 999.2
20260831201504 96 262 2.6 6.1 0.00 0.00 0.00 45 999.4
20260831201004 96 134 1.7 6.1 0.00 0.00 0.00 44 999.3
20260831200504 97 165 2.6 5.2 0.00 0.00 0.00 44 999.4
20260831200004 97 165 2.6 5.2 0.00 0.00 0.00 44 999.4
20260831195504 96 153 2.6 4.3 0.00 0.00 0.00 46 999.4
20260831195004 98 190 1.7 1.7 0.00 0.00 0.00 44 999.5
20260831194504 98 190 1.7 5.2 0.00 0.00 0.00 44 999.5
20260831194004 97 194 5.2 6.1 0.00 0.00 0.00 46 999.6
20260831193504 96 200 4.3 6.1 0.00 0.00 0.00 46 999.7
20260831193004 96 169 2.6 4.3 0.00 0.00 0.00 45 999.5
20260831192004 95 161 4.3 7.8 0.00 0.00 0.00 47 999.7
20260831191504 95 161 4.3 7.8 0.00 0.00 0.00 47 999.8
20260831190504 95 161 4.3 7.8 0.00 0.00 0.00 47 999.9
20260831190004 95 95 1.7 1.7 0.00 0.00 0.00 48 1000.1
20260831185504 95 95 1.7 1.7 0.00 0.00 0.00 48 1000.0
20260831185004 95 95 1.7 1.7 0.00 0.00 0.00 48 1000.0
20260831184504 95 95 1.7 2.6 0.00 0.00 0.00 48 1000.3
20260831183504 91 134 1.7 2.6 0.00 0.00 0.00 58 1000.3
20260831183004 91 134 1.7 2.6 0.00 0.00 0.00 58 1000.4
20260831182004 91 134 1.7 2.6 0.00 0.00 0.00 58 1000.5
20260831181004 91 134 1.7 2.6 0.00 0.00 0.00 58 1000.4
20260831180503 91 134 1.7 2.6 0.00 0.00 0.00 58 1000.5
20260831175004 91 134 1.7 2.6 0.00 0.00 0.00 58 1001.0
20260831174004 91 134 1.7 2.6 0.00 0.00 0.00 58 1000.7
20260831173504 91 134 1.7 2.6 0.00 0.00 0.00 58 1000.8
20260831173004 91 134 1.7 2.6 0.00 0.00 0.00 58 1001.0
20260831172504 91 134 1.7 2.6 0.00 0.00 0.00 58 1001.1
20260831172004 91 134 1.7 2.6 0.00 0.00 0.00 58 1001.1
20260831171504 91 134 1.7 5.2 0.00 0.00 0.00 58 1001.1
20260831171004 91 193 3.5 5.2 0.00 0.00 0.00 57 1001.3
20260831170504 92 106 2.6 4.3 0.00 0.00 0.00 74 1001.2
20260831170004 86 146 1.7 2.6 0.00 0.00 0.00 74 1001.2
20260831165504 86 146 1.7 2.6 0.00 0.00 0.00 74 1001.2
20260831165004 86 146 1.7 2.6 0.00 0.00 0.00 74 1001.2
20260831164504 86 146 1.7 2.6 0.00 0.00 0.00 74 1001.3
20260831164004 86 146 1.7 2.6 0.00 0.00 0.00 74 1001.3
20260831163504 86 146 1.7 2.6 0.00 0.00 0.00 74 1001.5
20260831162504 86 146 1.7 2.6 0.00 0.00 0.00 74 1001.3
20260831162004 86 146 1.7 2.6 0.00 0.00 0.00 74 1001.5
20260831161503 86 146 1.7 2.6 0.00 0.00 0.00 74 1001.3
20260831161003 86 146 1.7 2.6 0.00 0.00 0.00 74 1001.4
20260831160503 86 146 1.7 2.6 0.00 0.00 0.00 74 1001.3
20260831155004 86 146 1.7 2.6 0.00 0.00 0.00 74 1001.3
20260831154503 86 146 1.7 2.6 0.00 0.00 0.00 74 1001.3
20260831154003 86 146 1.7 2.6 0.00 0.00 0.00 74 1001.3
20260831153503 86 146 1.7 2.6 0.00 0.00 0.00 74 1001.3
20260831153003 86 146 1.7 2.6 0.00 0.00 0.00 74 1001.1
20260831152504 86 146 1.7 2.6 0.00 0.00 0.00 74 1001.3
20260831152004 86 146 1.7 2.6 0.00 0.00 0.00 74 1001.3
20260831151504 86 146 1.7 2.6 0.00 0.00 0.00 74 1001.3
20260831151004 86 146 1.7 2.6 0.00 0.00 0.00 74 1001.0
20260831150504 78 275 1.7 2.6 0.00 0.00 0.00 92 1001.1
20260831145003 78 275 1.7 2.6 0.00 0.00 0.00 92 1000.9
20260831144504 78 275 1.7 2.6 0.00 0.00 0.00 92 1000.9
20260831143503 78 275 1.7 2.6 0.00 0.00 0.00 92 1000.8
20260831143004 78 275 1.7 2.6 0.00 0.00 0.00 92 1000.8
20260831142504 78 275 1.7 2.6 0.00 0.00 0.00 92 1000.8
20260831142004 78 275 1.7 2.6 0.00 0.00 0.00 92 1000.7
20260831141503 78 275 1.7 2.6 0.00 0.00 0.00 92 1000.8
20260831141004 78 275 1.7 2.6 0.00 0.00 0.00 92 1000.7
20260831140504 78 275 1.7 2.6 0.00 0.00 0.00 92 1000.6
20260831135503 78 275 1.7 2.6 0.00 0.00 0.00 92 1000.4
20260831135003 78 275 1.7 2.6 0.00 0.00 0.00 92 1000.4
20260831134004 78 275 1.7 2.6 0.00 0.00 0.00 92 1000.4
20260831133504 78 275 1.7 2.6 0.00 0.00 0.00 92 1000.4
20260831133004 78 275 1.7 2.6 0.00 0.00 0.00 92 1000.3
20260831132002 78 275 1.7 2.6 0.00 0.00 0.00 92 1000.3
20260831131502 78 209 1.7 5.2 0.00 0.00 0.00 93 1000.4
20260831131003 78 204 0.9 2.6 0.00 0.00 0.00 94 1000.3
20260831130502 77 154 0.9 1.7 0.00 0.00 0.00 94 1000.1
20260831130003 77 249 1.7 1.7 0.00 0.00 0.00 95 1000.1
20260831125503 76 236 1.7 2.6 0.00 0.00 0.00 95 1000.0
20260831124502 76 271 1.7 2.6 0.00 0.00 0.00 95 999.8
20260831124003 76 141 0.9 2.6 0.00 0.00 0.00 95 1000.0
20260831123503 76 189 1.7 2.6 0.00 0.00 0.00 95 1000.0
20260831123002 76 154 0.9 1.7 0.00 0.00 0.00 95 999.7
20260831122503 76 247 0.9 2.6 0.00 0.00 0.00 95 999.7
20260831122002 76 179 1.7 2.6 0.00 0.00 0.00 95 999.7
20260831121003 76 153 1.7 2.6 0.00 0.00 0.00 94 1000.0
20260831120502 76 199 1.7 2.6 0.00 0.00 0.00 94 1000.0
20260831120003 76 155 1.7 5.2 0.00 0.00 0.00 94 999.7
20260831115502 76 180 2.6 5.2 0.00 0.00 0.00 94 999.7
20260831115003 76 147 1.7 2.6 0.00 0.00 0.00 94 999.6
20260831114503 76 153 1.7 4.3 0.00 0.00 0.00 93 999.7
20260831114002 76 169 1.7 2.6 0.00 0.00 0.00 93 999.7
20260831113503 77 170 1.7 4.3 0.00 0.00 0.00 93 999.7
20260831113002 77 287 1.7 4.3 0.00 0.00 0.00 93 999.6
20260831112503 77 176 1.7 4.3 0.00 0.00 0.00 93 999.6
20260831112002 77 258 2.6 5.2 0.00 0.00 0.00 93 999.7
20260831111503 77 256 1.7 5.2 0.00 0.00 0.00 93 999.6